View from above orbital plane
|
View from above satellite
|
Ground track
|
The orbit data is extracted from the following two-line orbital elements,
1 00694U 63047A 21059.61822443 .00000326 00000-0 26195-4 0 9994
2 00694 30.3594 280.2184 0585357 251.1861 102.4385 14.02762350873097
Epoch (UTC): | 28 February 2021 14:50:14 |
Eccentricity: | 0.0585357 |
inclination: | 30.3594° |
perigee height: | 459 km |
apogee height: | 1309 km |
right ascension of ascending node: | 280.2184° |
argument of perigee: | 251.1861° |
revolutions per day: | 14.02762350 |
mean anomaly at epoch: | 102.4385° |
orbit number at epoch: | 87309 |
The dashed part of the orbit path shows where the satellite is in the earth's shadow,
|
|